Location: Hopville
(44.8032°N, 123.1329°W)
Time: 04:17:24
(UTC+00:00)

Cosmos 1570 Rocket - Pass Details

Date: 24 January 2021
Orbit: 762 x 789 km, 74.1° (Epoch: 26 February)

Event Time Altitude Azimuth Distance (km) Brightness Sun altitude
Exits shadow 13:16:51 12° 192° (SSW) 2,173 6.2 -25.2°
Maximum altitude 13:21:43 74° 108° (ESE) 799 4.1 -24.3°
Drops below altitude 10° 13:26:57 10° 24° (NNE) 2,316 6.7 -23.4°
Sets 13:29:21 0° 23° (NNE) 3,250 7.5 -23.0°
